Tracking 19903 objects as of 16-Oct-2019
HD Live streaming from Space Station
objects crossing your sky now

MICROSAT-R DEB


MICROSAT-R DEB is no longer on orbit


NORAD ID: 44178
Int'l Code: 2019-006BR
Perigee: N/A
Apogee: N/A
Inclination: N/A
Period: N/A
Semi major axis: N/A
RCS: N/A
Launch date: January 24, 2019
Source: India (IND)
Launch site: SRIHARIKOTA (SRI)
Decay date: 2019-07-02

Note: This is SATELLITE DEBRIS
aabbcc
Your satellite tracking list
Your tracking list is empty




NASA's NSSDC Master Catalog

Two Line Element Set (TLE):
1 44178U 19006BR  19183.23683110  .19373405  16278-5  22805-2 0  9996
2 44178  96.1468  82.2530 0010301   5.4672 354.6740 16.36569484 14229
Source of the keplerian elements: AFSPC